| time (UTC) | temp F | wind direction | speed knots | gust knots | rain 1hr in | rain 24hr in | rain mn in | humidity % | barometer mb |
| 20260506104044 | 55 | 338 | 0.0 | 0.0 | 0.00 | 0.04 | 0.00 | 58 | 1013.3 |
| 20260506103541 | 55 | 44 | 0.0 | 0.0 | 0.00 | 0.04 | 0.00 | 58 | 1013.3 |
| 20260506103042 | 55 | 44 | 0.0 | 0.0 | 0.00 | 0.04 | 0.00 | 57 | 1013.3 |
| 20260506102539 | 56 | 44 | 0.0 | 2.6 | 0.00 | 0.04 | 0.00 | 56 | 1013.2 |
| 20260506102039 | 56 | 44 | 0.0 | 2.6 | 0.00 | 0.04 | 0.00 | 57 | 1013.2 |
| 20260506101547 | 55 | 44 | 0.0 | 1.7 | 0.00 | 0.04 | 0.00 | 58 | 1013.2 |
| 20260506101039 | 55 | 13 | 0.0 | 1.7 | 0.00 | 0.04 | 0.00 | 59 | 1013.1 |
| 20260506100539 | 55 | 347 | 0.0 | 1.7 | 0.00 | 0.04 | 0.00 | 60 | 1013.1 |
| 20260506100037 | 55 | 39 | 0.0 | 1.7 | 0.00 | 0.04 | 0.00 | 61 | 1013.1 |
| 20260506095540 | 55 | 32 | 0.0 | 2.6 | 0.00 | 0.07 | 0.00 | 60 | 1013.0 |
| 20260506095037 | 55 | 324 | 0.9 | 2.6 | 0.00 | 0.07 | 0.00 | 60 | 1013.0 |
| 20260506094536 | 55 | 317 | 0.9 | 1.7 | 0.00 | 0.07 | 0.00 | 60 | 1012.9 |
| 20260506094035 | 55 | 319 | 0.9 | 2.6 | 0.00 | 0.07 | 0.00 | 59 | 1012.9 |
| 20260506093536 | 56 | 317 | 0.9 | 2.6 | 0.00 | 0.07 | 0.00 | 59 | 1013.0 |
| 20260506093034 | 56 | 325 | 0.9 | 2.6 | 0.00 | 0.07 | 0.00 | 58 | 1013.0 |
| 20260506092534 | 56 | 321 | 0.9 | 2.6 | 0.00 | 0.07 | 0.00 | 56 | 1013.0 |
| 20260506092034 | 56 | 327 | 0.9 | 2.6 | 0.00 | 0.07 | 0.00 | 55 | 1012.9 |
| 20260506091534 | 55 | 311 | 0.0 | 0.9 | 0.00 | 0.07 | 0.00 | 55 | 1013.0 |
| 20260506091034 | 55 | 301 | 0.0 | 0.0 | 0.00 | 0.07 | 0.00 | 54 | 1012.9 |
| 20260506090533 | 55 | 306 | 0.0 | 0.0 | 0.00 | 0.07 | 0.00 | 54 | 1012.9 |
| 20260506090031 | 56 | 306 | 0.0 | 0.0 | 0.00 | 0.07 | 0.00 | 54 | 1012.9 |
| 20260506085530 | 56 | 306 | 0.0 | 0.0 | 0.00 | 0.10 | 0.00 | 54 | 1012.8 |
| 20260506085029 | 56 | 306 | 0.0 | 0.0 | 0.00 | 0.10 | 0.00 | 53 | 1012.9 |
| 20260506084535 | 57 | 306 | 0.0 | 0.9 | 0.00 | 0.10 | 0.00 | 53 | 1013.0 |
| 20260506084027 | 57 | 306 | 0.0 | 1.7 | 0.00 | 0.10 | 0.00 | 52 | 1013.0 |
| 20260506083526 | 57 | 306 | 0.9 | 1.7 | 0.00 | 0.10 | 0.00 | 52 | 1012.9 |
| 20260506083028 | 58 | 302 | 0.0 | 2.6 | 0.00 | 0.10 | 0.00 | 51 | 1013.0 |
| 20260506082525 | 58 | 302 | 0.0 | 2.6 | 0.00 | 0.10 | 0.00 | 50 | 1012.9 |
| 20260506082024 | 58 | 302 | 0.9 | 3.5 | 0.00 | 0.10 | 0.00 | 49 | 1013.0 |
| 20260506081527 | 58 | 311 | 0.9 | 3.5 | 0.00 | 0.10 | 0.00 | 49 | 1012.9 |
| 20260506081028 | 58 | 324 | 0.9 | 3.5 | 0.00 | 0.10 | 0.00 | 49 | 1013.0 |
| 20260506080523 | 58 | 322 | 0.0 | 2.6 | 0.00 | 0.10 | 0.00 | 50 | 1013.1 |
| 20260506073520 | 59 | 319 | 0.9 | 3.5 | 0.00 | 0.15 | 0.00 | 49 | 1013.0 |
| 20260506073020 | 59 | 319 | 1.7 | 3.5 | 0.00 | 0.15 | 0.00 | 49 | 1013.1 |
| 20260506072519 | 59 | 319 | 0.9 | 4.3 | 0.00 | 0.15 | 0.00 | 49 | 1013.1 |
| 20260506072019 | 59 | 321 | 1.7 | 4.3 | 0.00 | 0.15 | 0.00 | 49 | 1013.0 |
| 20260506071518 | 60 | 309 | 0.9 | 4.3 | 0.00 | 0.15 | 0.00 | 49 | 1013.0 |
| 20260506071016 | 60 | 319 | 1.7 | 4.3 | 0.00 | 0.15 | 0.00 | 48 | 1013.0 |
| 20260506070516 | 60 | 320 | 0.9 | 3.5 | 0.00 | 0.15 | 0.00 | 47 | 1012.9 |
| 20260506062514 | 61 | 321 | 0.0 | 2.6 | 0.00 | 0.24 | 0.15 | 49 | 1012.7 |
| 20260506062012 | 61 | 309 | 0.0 | 1.7 | 0.00 | 0.24 | 0.15 | 48 | 1012.7 |
| 20260506061512 | 61 | 307 | 0.0 | 0.9 | 0.00 | 0.24 | 0.15 | 47 | 1012.7 |
| 20260506061016 | 62 | 307 | 0.0 | 2.6 | 0.00 | 0.24 | 0.15 | 46 | 1012.7 |
| 20260506060511 | 62 | 306 | 0.0 | 2.6 | 0.00 | 0.24 | 0.15 | 46 | 1012.7 |
| 20260506060115 | 62 | 317 | 0.0 | 2.6 | 0.00 | 0.24 | 0.15 | 44 | 1012.8 |
| 20260506051009 | 63 | 243 | 0.0 | 0.9 | 0.00 | 0.31 | 0.15 | 42 | 1012.4 |
| 20260506050513 | 63 | 286 | 0.0 | 2.6 | 0.00 | 0.31 | 0.15 | 42 | 1012.4 |
| 20260506045010 | 64 | 284 | 0.0 | 3.5 | 0.00 | 0.34 | 0.15 | 41 | 1012.2 |
| 20260506044509 | 64 | 281 | 0.0 | 5.2 | 0.00 | 0.34 | 0.15 | 41 | 1012.1 |
| 20260506044010 | 64 | 5 | 0.9 | 5.2 | 0.00 | 0.34 | 0.15 | 41 | 1012.1 |
| 20260506043510 | 65 | 244 | 0.0 | 4.3 | 0.00 | 0.34 | 0.15 | 42 | 1012.0 |
| 20260506043007 | 65 | 269 | 0.9 | 7.8 | 0.00 | 0.34 | 0.15 | 42 | 1012.0 |
| 20260506042507 | 65 | 300 | 0.9 | 12.2 | 0.00 | 0.34 | 0.15 | 45 | 1012.0 |
| 20260506042006 | 65 | 70 | 0.9 | 12.2 | 0.00 | 0.34 | 0.15 | 47 | 1012.0 |
| 20260506041507 | 65 | 322 | 0.9 | 7.8 | 0.00 | 0.34 | 0.15 | 48 | 1011.9 |
| 20260506041006 | 65 | 230 | 1.7 | 7.8 | 0.00 | 0.34 | 0.15 | 47 | 1011.8 |
| 20260506040506 | 65 | 302 | 0.9 | 3.5 | 0.00 | 0.34 | 0.15 | 47 | 1011.6 |
| 20260506040006 | 65 | 132 | 0.9 | 3.5 | 0.00 | 0.34 | 0.15 | 47 | 1011.5 |
| 20260506035506 | 64 | 302 | 0.0 | 2.6 | 0.00 | 0.34 | 0.15 | 47 | 1011.4 |
| 20260506035007 | 64 | 360 | 0.0 | 0.9 | 0.00 | 0.34 | 0.15 | 46 | 1011.2 |
| 20260506034506 | 64 | 281 | 0.0 | 0.9 | 0.00 | 0.34 | 0.15 | 44 | 1011.1 |
| 20260506034006 | 64 | 226 | 0.0 | 2.6 | 0.00 | 0.34 | 0.15 | 43 | 1011.1 |
| 20260506033505 | 65 | 223 | 0.0 | 2.6 | 0.00 | 0.34 | 0.15 | 42 | 1011.0 |
| 20260506033006 | 65 | 259 | 0.0 | 4.3 | 0.00 | 0.34 | 0.15 | 41 | 1011.0 |
| 20260506032505 | 65 | 236 | 0.0 | 4.3 | 0.00 | 0.34 | 0.15 | 41 | 1010.9 |
| 20260506032006 | 66 | 225 | 0.0 | 3.5 | 0.00 | 0.34 | 0.15 | 40 | 1010.8 |
| 20260506031505 | 66 | 235 | 0.0 | 3.5 | 0.00 | 0.34 | 0.15 | 39 | 1010.7 |
| 20260506031007 | 66 | 273 | 0.0 | 3.5 | 0.00 | 0.34 | 0.15 | 39 | 1010.6 |
| 20260506030508 | 66 | 193 | 0.0 | 6.1 | 0.00 | 0.34 | 0.15 | 38 | 1010.6 |
| 20260506030004 | 67 | 311 | 0.9 | 6.1 | 0.00 | 0.35 | 0.15 | 38 | 1010.6 |
| 20260506025504 | 67 | 248 | 0.9 | 5.2 | 0.00 | 0.35 | 0.15 | 37 | 1010.4 |
| 20260506025004 | 67 | 249 | 0.9 | 7.8 | 0.00 | 0.35 | 0.15 | 37 | 1010.5 |
| 20260506024504 | 67 | 245 | 0.9 | 7.8 | 0.00 | 0.35 | 0.15 | 36 | 1010.4 |
| 20260506024004 | 67 | 194 | 0.9 | 7.0 | 0.00 | 0.35 | 0.15 | 36 | 1010.4 |
| 20260506023504 | 67 | 285 | 0.9 | 7.0 | 0.00 | 0.35 | 0.15 | 36 | 1010.3 |
| 20260506023004 | 67 | 289 | 0.0 | 7.0 | 0.00 | 0.35 | 0.15 | 35 | 1010.3 |
| 20260506022504 | 68 | 269 | 0.0 | 7.0 | 0.00 | 0.35 | 0.15 | 34 | 1010.1 |
| 20260506022007 | 68 | 242 | 0.0 | 6.1 | 0.00 | 0.35 | 0.15 | 34 | 1010.1 |
| 20260506021506 | 68 | 240 | 0.0 | 6.1 | 0.00 | 0.35 | 0.15 | 33 | 1010.0 |
| 20260506021003 | 68 | 292 | 1.7 | 6.1 | 0.00 | 0.35 | 0.15 | 32 | 1009.9 |
| 20260506020503 | 69 | 329 | 0.9 | 10.4 | 0.00 | 0.35 | 0.15 | 32 | 1009.9 |
| 20260506020003 | 69 | 184 | 2.6 | 13.0 | 0.00 | 0.36 | 0.15 | 31 | 1009.7 |
| 20260506015503 | 69 | 267 | 5.2 | 13.0 | 0.00 | 0.36 | 0.15 | 31 | 1009.7 |
| 20260506015005 | 70 | 261 | 3.5 | 13.0 | 0.00 | 0.36 | 0.15 | 31 | 1009.7 |
| 20260506014502 | 70 | 315 | 5.2 | 13.0 | 0.00 | 0.36 | 0.15 | 30 | 1009.6 |
| 20260506014003 | 70 | 209 | 6.1 | 13.0 | 0.00 | 0.36 | 0.15 | 31 | 1009.7 |
| 20260506013502 | 70 | 293 | 2.6 | 12.2 | 0.00 | 0.36 | 0.15 | 32 | 1009.5 |
| 20260506013002 | 71 | 272 | 2.6 | 9.6 | 0.00 | 0.36 | 0.15 | 32 | 1009.6 |
| 20260506012502 | 71 | 319 | 4.3 | 11.3 | 0.00 | 0.36 | 0.15 | 32 | 1009.5 |
| 20260506012003 | 72 | 287 | 4.3 | 11.3 | 0.00 | 0.36 | 0.15 | 32 | 1009.4 |
| 20260506011502 | 72 | 246 | 2.6 | 12.2 | 0.00 | 0.36 | 0.15 | 31 | 1009.3 |
| 20260506011003 | 72 | 320 | 2.6 | 14.8 | 0.00 | 0.36 | 0.15 | 32 | 1009.2 |
| 20260506010503 | 73 | 238 | 3.5 | 14.8 | 0.00 | 0.36 | 0.15 | 32 | 1009.2 |
| 20260506010118 | 73 | 236 | 4.3 | 13.0 | 0.00 | 0.36 | 0.15 | 32 | 1009.1 |
| 20260506005601 | 73 | 240 | 3.5 | 13.0 | 0.00 | 0.36 | 0.15 | 30 | 1009.0 |
| 20260506005100 | 73 | 277 | 4.3 | 10.4 | 0.00 | 0.36 | 0.15 | 31 | 1009.0 |
| 20260506004604 | 73 | 298 | 2.6 | 13.0 | 0.00 | 0.36 | 0.15 | 30 | 1009.0 |
| 20260506004100 | 73 | 165 | 5.2 | 13.0 | 0.00 | 0.36 | 0.15 | 28 | 1008.9 |
| 20260506003600 | 74 | 278 | 6.1 | 13.0 | 0.00 | 0.36 | 0.15 | 28 | 1009.0 |
| 20260506003100 | 74 | 233 | 2.6 | 12.2 | 0.00 | 0.36 | 0.15 | 27 | 1008.8 |
| 20260506002559 | 74 | 245 | 4.3 | 14.8 | 0.00 | 0.36 | 0.15 | 28 | 1008.8 |
| 20260506002100 | 74 | 277 | 6.1 | 14.8 | 0.00 | 0.36 | 0.15 | 27 | 1008.8 |
| 20260506001559 | 74 | 265 | 5.2 | 9.6 | 0.00 | 0.36 | 0.15 | 27 | 1008.7 |
| 20260506001100 | 74 | 247 | 4.3 | 10.4 | 0.00 | 0.36 | 0.15 | 28 | 1008.7 |
| 20260506000559 | 74 | 300 | 2.6 | 10.4 | 0.00 | 0.36 | 0.15 | 28 | 1008.7 |
| 20260506000059 | 76 | 160 | 4.3 | 8.7 | 0.00 | 0.36 | 0.15 | 26 | 1008.8 |
| 20260505235558 | 76 | 325 | 2.6 | 10.4 | 0.00 | 0.36 | 0.15 | 25 | 1008.7 |
| 20260505235058 | 75 | 188 | 3.5 | 13.0 | 0.00 | 0.36 | 0.15 | 26 | 1008.6 |
| 20260505234609 | 75 | 238 | 5.2 | 15.6 | 0.00 | 0.36 | 0.15 | 25 | 1008.4 |
| 20260505234057 | 75 | 203 | 7.8 | 15.6 | 0.00 | 0.36 | 0.15 | 26 | 1008.4 |
| 20260505233557 | 75 | 236 | 4.3 | 10.4 | 0.00 | 0.36 | 0.15 | 24 | 1008.4 |
| 20260505233057 | 75 | 160 | 6.1 | 10.4 | 0.00 | 0.36 | 0.15 | 26 | 1008.5 |
| 20260505232600 | 76 | 245 | 6.1 | 13.9 | 0.00 | 0.36 | 0.15 | 25 | 1008.4 |
| 20260505232058 | 76 | 232 | 5.2 | 11.3 | 0.00 | 0.36 | 0.15 | 25 | 1008.5 |
| 20260505231557 | 76 | 299 | 5.2 | 13.0 | 0.00 | 0.36 | 0.15 | 25 | 1008.5 |
| 20260505231056 | 76 | 257 | 7.0 | 13.0 | 0.00 | 0.36 | 0.15 | 26 | 1008.5 |
| 20260505230556 | 76 | 194 | 8.7 | 13.0 | 0.00 | 0.36 | 0.15 | 23 | 1008.5 |
| 20260505230055 | 77 | 229 | 7.0 | 14.8 | 0.00 | 0.36 | 0.15 | 26 | 1008.5 |
| 20260505225555 | 77 | 330 | 7.8 | 13.9 | 0.00 | 0.36 | 0.15 | 26 | 1008.4 |
| 20260505225055 | 76 | 164 | 4.3 | 13.9 | 0.00 | 0.36 | 0.15 | 27 | 1008.5 |
| 20260505224554 | 76 | 215 | 5.2 | 9.6 | 0.00 | 0.36 | 0.15 | 29 | 1008.6 |
| 20260505224056 | 75 | 278 | 2.6 | 8.7 | 0.00 | 0.36 | 0.15 | 32 | 1008.7 |
| 20260505223552 | 74 | 183 | 2.6 | 9.6 | 0.00 | 0.36 | 0.15 | 31 | 1008.8 |
| 20260505223052 | 75 | 226 | 5.2 | 9.6 | 0.00 | 0.36 | 0.15 | 30 | 1008.9 |
| 20260505222552 | 75 | 245 | 3.5 | 9.6 | 0.00 | 0.36 | 0.15 | 30 | 1008.8 |
| 20260505222052 | 76 | 258 | 4.3 | 9.6 | 0.00 | 0.36 | 0.15 | 30 | 1009.0 |
| 20260505221552 | 76 | 240 | 1.7 | 10.4 | 0.00 | 0.36 | 0.15 | 32 | 1008.9 |
| 20260505221057 | 75 | 159 | 3.5 | 12.2 | 0.00 | 0.36 | 0.15 | 31 | 1009.0 |
| 20260505220550 | 75 | 252 | 6.1 | 12.2 | 0.00 | 0.36 | 0.15 | 30 | 1009.0 |
| 20260505220050 | 74 | 192 | 4.3 | 12.2 | 0.00 | 0.36 | 0.15 | 30 | 1009.1 |
| 20260505215550 | 75 | 259 | 5.2 | 14.8 | 0.00 | 0.36 | 0.15 | 29 | 1009.2 |
| 20260505215054 | 75 | 230 | 7.8 | 14.8 | 0.00 | 0.36 | 0.15 | 30 | 1009.1 |
| 20260505214604 | 75 | 188 | 6.1 | 15.6 | 0.00 | 0.36 | 0.15 | 30 | 1009.2 |
| 20260505214050 | 74 | 233 | 7.0 | 15.6 | 0.00 | 0.36 | 0.15 | 31 | 1009.3 |
| 20260505213551 | 73 | 223 | 7.0 | 17.4 | 0.00 | 0.36 | 0.15 | 32 | 1009.3 |
| 20260505213059 | 74 | 210 | 7.0 | 17.4 | 0.00 | 0.36 | 0.15 | 30 | 1009.4 |
| 20260505212549 | 75 | 177 | 8.7 | 17.4 | 0.00 | 0.36 | 0.15 | 26 | 1009.4 |
| 20260505212049 | 75 | 247 | 7.8 | 13.9 | 0.00 | 0.36 | 0.15 | 29 | 1009.4 |
| 20260505211549 | 75 | 248 | 6.1 | 17.4 | 0.00 | 0.36 | 0.15 | 30 | 1009.5 |
| 20260505211049 | 75 | 246 | 7.0 | 17.4 | 0.00 | 0.36 | 0.15 | 30 | 1009.5 |
| 20260505210549 | 75 | 214 | 9.6 | 17.4 | 0.00 | 0.36 | 0.15 | 29 | 1009.6 |
| 20260505210055 | 75 | 235 | 7.0 | 14.8 | 0.00 | 0.36 | 0.15 | 26 | 1009.6 |
| 20260505205548 | 75 | 268 | 7.0 | 14.8 | 0.00 | 0.36 | 0.15 | 28 | 1009.6 |
| 20260505205051 | 75 | 221 | 9.6 | 16.5 | 0.00 | 0.36 | 0.15 | 28 | 1009.6 |
| 20260505204556 | 75 | 284 | 9.6 | 19.1 | 0.00 | 0.36 | 0.15 | 27 | 1009.6 |
| 20260505204047 | 75 | 244 | 10.4 | 19.1 | 0.00 | 0.36 | 0.15 | 27 | 1009.7 |
| 20260505203547 | 75 | 245 | 11.3 | 20.0 | 0.00 | 0.36 | 0.15 | 25 | 1009.6 |
| 20260505203053 | 75 | 267 | 7.0 | 18.2 | 0.00 | 0.36 | 0.15 | 28 | 1009.5 |
| 20260505202547 | 75 | 217 | 10.4 | 19.1 | 0.00 | 0.36 | 0.15 | 25 | 1009.7 |
| 20260505202046 | 75 | 209 | 8.7 | 19.1 | 0.00 | 0.36 | 0.15 | 29 | 1009.6 |
| 20260505201547 | 76 | 275 | 7.8 | 17.4 | 0.00 | 0.36 | 0.15 | 30 | 1009.7 |
| 20260505201044 | 75 | 224 | 5.2 | 17.4 | 0.00 | 0.36 | 0.15 | 33 | 1009.7 |
| 20260505200543 | 74 | 255 | 7.8 | 20.0 | 0.00 | 0.36 | 0.15 | 34 | 1009.8 |
| 20260505200057 | 74 | 242 | 8.7 | 23.5 | 0.00 | 0.36 | 0.15 | 36 | 1009.6 |
| 20260505195540 | 74 | 258 | 8.7 | 23.5 | 0.00 | 0.36 | 0.15 | 36 | 1009.8 |
| 20260505195040 | 74 | 261 | 5.2 | 18.2 | 0.00 | 0.36 | 0.15 | 35 | 1009.7 |
| 20260505194545 | 73 | 192 | 9.6 | 18.2 | 0.00 | 0.36 | 0.15 | 39 | 1009.9 |
| 20260505194039 | 72 | 175 | 6.1 | 12.2 | 0.00 | 0.36 | 0.15 | 44 | 1009.9 |
| 20260505193536 | 70 | 238 | 4.3 | 10.4 | 0.00 | 0.36 | 0.15 | 52 | 1009.8 |
| 20260505193036 | 70 | 241 | 0.9 | 4.3 | 0.00 | 0.36 | 0.15 | 52 | 1009.9 |
| 20260505192535 | 70 | 108 | 0.0 | 1.7 | 0.00 | 0.36 | 0.15 | 51 | 1009.9 |
| 20260505192035 | 70 | 149 | 0.0 | 5.2 | 0.00 | 0.36 | 0.15 | 52 | 1009.9 |
| 20260505191535 | 70 | 243 | 1.7 | 5.2 | 0.00 | 0.36 | 0.15 | 50 | 1010.0 |
| 20260505191035 | 70 | 111 | 0.0 | 3.5 | 0.00 | 0.36 | 0.15 | 52 | 1010.0 |
| 20260505190534 | 70 | 271 | 0.9 | 3.5 | 0.00 | 0.36 | 0.15 | 52 | 1010.1 |
| 20260505190036 | 70 | 26 | 0.0 | 6.1 | 0.00 | 0.36 | 0.15 | 51 | 1010.1 |
| 20260505185534 | 69 | 205 | 0.9 | 6.1 | 0.00 | 0.36 | 0.15 | 52 | 1010.3 |
| 20260505185034 | 70 | 247 | 1.7 | 7.8 | 0.00 | 0.36 | 0.15 | 51 | 1010.4 |
| 20260505184534 | 70 | 116 | 3.5 | 7.8 | 0.00 | 0.36 | 0.15 | 53 | 1010.4 |
| 20260505184032 | 70 | 108 | 1.7 | 5.2 | 0.00 | 0.36 | 0.15 | 52 | 1010.6 |
| 20260505183532 | 69 | 113 | 0.0 | 3.5 | 0.00 | 0.36 | 0.15 | 54 | 1010.7 |
| 20260505183030 | 68 | 82 | 0.9 | 4.3 | 0.00 | 0.36 | 0.15 | 55 | 1010.6 |
| 20260505182530 | 67 | 62 | 1.7 | 5.2 | 0.00 | 0.36 | 0.15 | 56 | 1010.8 |
| 20260505182031 | 67 | 28 | 3.5 | 5.2 | 0.00 | 0.36 | 0.15 | 55 | 1010.9 |
| 20260505181531 | 68 | 329 | 0.0 | 3.5 | 0.00 | 0.36 | 0.15 | 56 | 1011.0 |
| 20260505181033 | 68 | 240 | 0.9 | 3.5 | 0.00 | 0.36 | 0.15 | 56 | 1011.0 |
| 20260505180530 | 68 | 300 | 0.0 | 3.5 | 0.00 | 0.36 | 0.15 | 56 | 1011.0 |
| 20260505180051 | 68 | 327 | 0.0 | 3.5 | 0.00 | 0.36 | 0.15 | 58 | 1011.0 |
| 20260505175530 | 68 | 226 | 0.0 | 2.6 | 0.00 | 0.36 | 0.15 | 58 | 1011.0 |
| 20260505175032 | 68 | 267 | 0.0 | 2.6 | 0.00 | 0.36 | 0.15 | 58 | 1011.1 |
| 20260505174548 | 68 | 232 | 0.0 | 1.7 | 0.00 | 0.36 | 0.15 | 57 | 1011.1 |
| 20260505174029 | 67 | 227 | 0.0 | 4.3 | 0.00 | 0.36 | 0.15 | 60 | 1011.1 |
| 20260505173531 | 68 | 271 | 0.9 | 4.3 | 0.00 | 0.36 | 0.15 | 58 | 1011.2 |
| 20260505173033 | 69 | 256 | 0.0 | 2.6 | 0.00 | 0.36 | 0.15 | 58 | 1011.1 |
| 20260505172526 | 67 | 195 | 0.0 | 4.3 | 0.00 | 0.36 | 0.15 | 60 | 1011.1 |
| 20260505172026 | 67 | 191 | 1.7 | 4.3 | 0.00 | 0.36 | 0.15 | 60 | 1011.2 |
| 20260505171526 | 67 | 155 | 0.0 | 4.3 | 0.00 | 0.36 | 0.15 | 60 | 1011.2 |
| 20260505171024 | 67 | 138 | 0.0 | 0.9 | 0.00 | 0.36 | 0.15 | 63 | 1011.1 |
| 20260505170523 | 66 | 93 | 0.0 | 1.7 | 0.00 | 0.36 | 0.15 | 64 | 1011.1 |
| 20260505170023 | 65 | 94 | 0.0 | 3.5 | 0.00 | 0.36 | 0.15 | 64 | 1011.0 |
| 20260505165522 | 65 | 51 | 0.9 | 3.5 | 0.00 | 0.36 | 0.15 | 64 | 1011.0 |
| 20260505165024 | 65 | 55 | 0.9 | 2.6 | 0.00 | 0.36 | 0.15 | 64 | 1010.9 |
| 20260505164522 | 66 | 86 | 0.0 | 1.7 | 0.00 | 0.36 | 0.15 | 64 | 1010.9 |
| 20260505164020 | 65 | 28 | 0.0 | 2.6 | 0.00 | 0.36 | 0.15 | 71 | 1011.0 |
| 20260505163520 | 64 | 92 | 0.0 | 2.6 | 0.00 | 0.36 | 0.15 | 71 | 1010.9 |
| 20260505163021 | 65 | 85 | 0.0 | 0.0 | 0.00 | 0.36 | 0.15 | 72 | 1011.0 |
| 20260505162518 | 64 | 194 | 0.0 | 0.0 | 0.00 | 0.36 | 0.15 | 74 | 1011.1 |
| 20260505162018 | 63 | 194 | 0.0 | 0.0 | 0.00 | 0.36 | 0.15 | 75 | 1011.1 |
| 20260505161516 | 63 | 196 | 0.0 | 0.0 | 0.00 | 0.36 | 0.15 | 75 | 1011.2 |
| 20260505161019 | 63 | 234 | 0.0 | 0.0 | 0.00 | 0.36 | 0.15 | 75 | 1011.2 |
| 20260505160516 | 63 | 234 | 0.0 | 0.0 | 0.00 | 0.36 | 0.15 | 75 | 1011.1 |
| 20260505153012 | 62 | 315 | 0.0 | 0.0 | 0.00 | 0.36 | 0.15 | 80 | 1010.8 |
| 20260505152512 | 62 | 315 | 0.0 | 0.0 | 0.00 | 0.36 | 0.15 | 80 | 1010.7 |
| 20260505152011 | 62 | 273 | 0.0 | 0.9 | 0.00 | 0.36 | 0.15 | 81 | 1010.7 |
| 20260505151513 | 62 | 257 | 0.0 | 1.7 | 0.00 | 0.36 | 0.15 | 82 | 1010.7 |
| 20260505151010 | 62 | 290 | 0.0 | 1.7 | 0.00 | 0.36 | 0.15 | 82 | 1010.8 |
| 20260505150513 | 62 | 242 | 0.0 | 0.9 | 0.00 | 0.36 | 0.15 | 82 | 1010.8 |
| 20260505140503 | 60 | 90 | 0.0 | 0.0 | 0.00 | 0.36 | 0.15 | 81 | 1010.3 |
| 20260505124557 | 58 | 117 | 0.0 | 2.6 | 0.01 | 0.36 | 0.15 | 88 | 1009.4 |
| 20260505124055 | 58 | 142 | 0.9 | 2.6 | 0.01 | 0.36 | 0.15 | 88 | 1009.3 |
| 20260505123555 | 58 | 146 | 0.9 | 2.6 | 0.01 | 0.36 | 0.15 | 88 | 1009.4 |
| 20260505123103 | 58 | 121 | 0.0 | 0.9 | 0.01 | 0.36 | 0.15 | 87 | 1009.2 |
| 20260505122555 | 58 | 136 | 0.0 | 0.0 | 0.01 | 0.36 | 0.15 | 87 | 1009.1 |
| 20260505122055 | 58 | 129 | 0.0 | 0.0 | 0.01 | 0.36 | 0.15 | 86 | 1009.3 |
| 20260505121557 | 58 | 129 | 0.0 | 0.0 | 0.01 | 0.36 | 0.15 | 86 | 1009.3 |
| 20260505121055 | 58 | 129 | 0.0 | 0.0 | 0.01 | 0.36 | 0.15 | 85 | 1009.0 |
| 20260505120555 | 58 | 128 | 0.0 | 0.0 | 0.01 | 0.36 | 0.15 | 85 | 1008.9 |
| 20260505120055 | 58 | 128 | 0.0 | 0.0 | 0.01 | 0.36 | 0.15 | 84 | 1008.9 |
| 20260505115554 | 58 | 128 | 0.0 | 1.7 | 0.02 | 0.36 | 0.15 | 84 | 1009.0 |
| 20260505115054 | 58 | 128 | 0.0 | 1.7 | 0.02 | 0.36 | 0.15 | 83 | 1008.7 |
| 20260505114554 | 58 | 123 | 0.0 | 3.5 | 0.01 | 0.35 | 0.14 | 83 | 1008.7 |
| 20260505114054 | 58 | 105 | 0.0 | 3.5 | 0.01 | 0.35 | 0.14 | 83 | 1008.7 |
| 20260505113553 | 58 | 94 | 0.9 | 3.5 | 0.01 | 0.35 | 0.14 | 84 | 1008.8 |
| 20260505113108 | 58 | 91 | 0.9 | 3.5 | 0.01 | 0.35 | 0.14 | 85 | 1009.1 |
| 20260505112553 | 58 | 163 | 0.9 | 3.5 | 0.01 | 0.35 | 0.14 | 84 | 1009.4 |
| 20260505112052 | 58 | 69 | 0.9 | 4.3 | 0.01 | 0.35 | 0.14 | 83 | 1009.1 |
| 20260505111552 | 58 | 130 | 0.0 | 4.3 | 0.02 | 0.35 | 0.14 | 85 | 1009.2 |
| 20260505111052 | 58 | 90 | 0.0 | 7.0 | 0.02 | 0.35 | 0.14 | 85 | 1009.1 |
| 20260505110551 | 58 | 121 | 1.7 | 7.0 | 0.03 | 0.35 | 0.14 | 85 | 1009.0 |